Wind_Speed
14 14 15 16 17 18 18 19 18 18 17 17 18 18 18 18 19 19 18 18 18 18 18 18 19 19 20 20 19 20 19 19 19 19 18 17 17 17 18 17 17 17 17
15 15 16 17 18 19 19 20 19 19 19 19 19 19 19 20 20 20 20 19 19 19 20 20 20 21 21 21 21 21 21 21 21 21 20 19 18 18 19 19 19 19 19
17 17 19 19 20 20 21 21 21 20 20 20 20 20 21 21 21 20 20 20 20 21 22 22 22 22 22 23 23 23 23 23 23 23 22 21 21 21 20 20 20 20 20
19 19 20 21 22 21 21 21 22 22 21 21 21 21 21 22 22 21 21 21 21 23 24 24 24 23 24 24 24 24 25 24 24 24 24 23 23 23 22 22 22 22 22
21 21 22 22 22 22 22 22 22 22 22 23 22 22 22 23 23 23 23 23 23 24 24 25 25 25 25 26 25 25 25 26 25 25 25 24 24 25 24 24 24 24 24
22 22 22 23 23 23 22 22 23 23 23 24 23 23 24 23 23 23 23 24 25 25 26 25 25 26 27 27 27 26 26 26 27 26 26 26 26 26 26 26 26 26 26
24 23 22 22 23 23 23 24 24 24 24 24 24 24 24 24 24 25 25 26 26 26 26 27 28 27 28 29 29 28 27 27 27 27 27 27 28 27 28 28 28 29 28
23 23 23 23 24 25 25 26 25 25 25 25 24 25 25 25 26 27 27 27 27 28 28 28 28 28 29 29 29 29 29 29 28 28 28 27 28 29 29 29 30 30 29
24 25 25 26 26 27 27 27 27 26 26 26 26 26 26 27 27 28 29 28 28 29 29 29 28 28 29 29 29 29 29 29 29 28 28 29 29 30 31 32 31 31 30
26 26 27 28 29 29 29 30 29 29 28 27 27 27 27 27 28 28 29 29 29 29 29 29 29 29 29 29 29 29 29 29 28 29 30 30 31 31 32 32 32 32 32
28 28 29 30 30 30 30 30 31 30 29 29 28 28 27 28 29 28 29 29 29 29 29 29 29 29 29 29 29 29 29 29 29 30 31 31 32 32 33 33 33 33 33
29 30 30 31 31 31 31 31 31 31 30 30 29 29 29 29 29 29 29 29 29 29 28 28 28 29 29 29 29 29 29 30 30 31 31 32 33 33 33 34 33 33 33
31 31 31 32 32 32 32 31 30 30 31 31 30 30 30 29 29 29 29 29 29 29 29 30 29 29 29 30 30 30 30 30 31 32 33 33 33 33 33 33 33 33 33
32 32 32 33 33 32 32 31 31 31 31 31 31 31 31 30 30 30 30 29 29 30 30 30 30 30 30 30 30 29 30 31 31 32 33 33 34 34 34 33 33 33 33
33 32 33 33 34 34 33 33 32 32 32 31 32 33 32 31 30 30 31 30 29 30 30 31 31 31 31 31 30 31 31 32 32 33 33 34 33 34 34 34 34 34 34
33 33 33 33 34 34 34 34 33 33 32 32 33 32 32 32 31 31 30 30 30 31 31 31 32 32 32 32 32 32 33 33 34 35 35 35 35 34 34 34 34 34 34
33 33 33 33 33 33 33 33 33 33 32 32 33 33 33 32 31 31 31 32 32 32 33 32 32 33 33 34 35 34 34 34 35 35 36 36 36 35 35 34 34 34 34
33 33 33 32 33 33 33 33 33 33 33 32 32 32 32 31 32 32 32 32 32 33 33 32 33 34 34 34 35 35 35 35 35 36 36 35 35 35 35 35 35 35 35
33 33 32 33 33 33 33 33 33 32 32 32 32 31 31 31 31 32 32 32 32 32 32 33 33 34 34 35 35 35 36 36 36 36 35 35 35 35 36 36 36 35 36
33 32 32 33 33 33 33 33 33 32 31 31 31 31 31 31 31 31 31 31 32 33 33 34 35 35 35 36 36 36 36 36 36 35 35 35 36 36 35 35 35 35 35
31 32 32 32 33 32 32 32 31 31 31 30 30 31 31 31 32 32 32 32 33 34 35 35 35 35 35 35 36 36 36 36 35 35 36 36 36 36 36 34 34 34 34
31 31 31 31 31 31 31 31 31 31 31 31 32 32 31 32 32 33 33 34 34 35 35 34 34 34 34 35 35 36 36 36 36 36 36 36 36 35 35 34 34 34 34
31 31 31 31 31 31 31 31 31 31 31 32 31 31 32 33 33 33 33 34 34 34 35 35 34 34 34 35 35 35 35 35 35 35 36 36 35 34 34 33 33 32 33
31 31 30 30 30 30 30 31 31 31 31 32 32 32 33 34 34 34 34 34 34 35 35 35 34 34 35 35 35 35 35 35 35 35 35 34 34 33 32 32 32 33 33
30 31 30 29 29 29 30 30 31 31 31 31 32 33 33 34 33 33 33 34 34 34 34 35 35 34 34 34 34 35 35 34 34 34 34 33 33 32 32 32 32 32 32
29 29 29 29 29 29 30 30 30 30 31 31 32 32 33 33 33 32 32 33 34 34 34 35 35 35 35 34 34 34 34 33 32 32 32 32 32 31 31 31 31 31 31
Wind_Direction
317 317 318 321 322 322 321 319 314 308 303 300 299 297 297 295 294 291 290 288 288 289 290 291 293 296 297 295 294 292 292 292 292 293 289 289 289 289 290 290 287 286 286
312 313 314 316 317 317 317 317 315 312 308 302 297 295 295 294 294 293 293 292 289 288 288 290 293 295 296 294 292 290 289 290 290 291 289 288 288 288 287 286 286 285 282
308 309 310 312 312 312 314 313 312 309 308 307 302 298 295 293 291 292 294 293 292 293 290 290 293 293 293 294 290 288 288 289 290 291 291 290 289 289 289 287 286 286 283
306 306 308 310 311 313 313 313 312 309 307 307 304 298 295 292 290 290 292 295 295 294 291 290 292 293 293 292 291 288 287 288 290 290 290 289 288 289 288 287 284 284 283
304 305 306 307 309 310 310 311 311 309 306 305 303 299 295 292 291 291 292 294 294 293 293 292 291 290 289 290 292 290 288 289 288 288 287 287 288 287 287 286 285 283 282
302 303 304 305 306 309 309 310 310 307 305 303 300 299 296 294 293 292 292 293 294 292 292 292 292 290 289 290 291 291 290 289 287 288 285 285 287 287 287 286 285 284 283
300 300 302 304 305 305 308 309 308 306 305 304 302 300 297 295 294 292 292 292 293 294 294 292 291 291 291 290 290 289 288 288 288 287 284 284 284 286 287 287 287 286 283
299 299 301 302 303 304 305 306 306 305 303 303 300 298 297 295 294 293 292 293 294 294 294 295 294 293 292 292 291 289 287 287 286 286 285 285 284 285 287 287 287 286 284
299 298 300 301 302 301 301 303 303 302 300 300 298 295 294 294 293 293 294 293 292 292 292 293 295 295 294 293 292 291 290 288 287 285 284 284 285 286 286 286 285 284 283
297 298 299 301 302 301 300 300 300 299 298 297 295 293 292 292 293 295 296 294 293 292 291 291 293 294 295 295 293 292 291 289 288 287 286 285 284 285 286 286 286 284 282
297 298 299 301 301 301 301 300 299 298 296 295 294 294 294 294 295 295 295 295 294 292 291 291 292 293 294 294 294 294 293 290 287 287 286 285 285 284 284 284 284 283 281
296 297 297 298 300 301 300 300 299 297 296 295 296 296 296 296 295 295 295 295 294 293 291 290 292 292 292 293 292 293 292 291 290 289 289 288 287 285 285 284 283 282 281
295 294 294 296 298 299 299 299 298 298 297 298 297 297 296 295 295 294 294 294 293 292 292 291 291 291 292 292 292 291 290 289 291 291 291 290 288 287 286 284 283 281 280
295 294 294 295 296 297 299 301 300 299 300 299 297 297 297 295 296 295 294 293 293 292 291 291 291 291 291 291 291 291 290 290 291 292 293 292 290 288 287 285 283 282 282
294 294 294 295 296 297 298 299 299 299 299 298 298 297 297 296 296 295 294 294 293 293 292 292 291 291 291 291 290 290 290 291 291 292 293 292 292 290 288 286 284 283 283
293 294 293 294 296 297 297 298 298 298 299 299 299 299 299 297 295 295 297 295 294 294 293 292 292 291 291 290 291 291 291 291 292 292 292 293 292 292 291 288 286 285 284
292 292 292 294 295 296 297 297 297 297 297 298 298 299 298 296 296 296 296 296 295 295 294 293 292 293 293 292 291 291 290 290 290 292 293 293 293 292 291 289 287 286 285
292 292 293 293 294 295 295 296 296 296 296 298 298 297 296 296 297 296 295 295 295 295 295 294 293 294 294 293 293 292 291 290 290 290 292 292 292 291 291 290 288 286 285
292 292 292 292 294 295 295 295 295 296 296 297 298 296 294 295 296 296 296 296 295 296 297 297 297 296 295 294 293 292 292 291 290 290 290 291 290 290 290 289 287 286 284
290 291 292 293 294 295 296 296 296 296 297 298 298 298 297 297 297 296 297 298 298 298 299 299 298 297 296 295 293 292 293 293 291 290 289 289 289 290 290 289 288 286 284
292 292 292 292 293 295 297 297 297 297 298 298 298 300 300 299 298 298 298 298 298 298 298 298 299 299 298 297 295 294 295 294 292 292 291 290 289 289 290 290 289 287 284
291 292 293 295 295 295 298 299 297 296 296 297 298 299 300 299 298 298 298 298 298 299 299 299 299 299 298 298 297 295 294 294 294 294 293 292 291 290 289 290 290 289 287
291 291 291 292 293 295 296 298 298 297 297 297 298 299 299 300 299 298 299 299 300 300 300 300 299 299 299 298 299 298 297 297 297 296 295 295 294 292 290 290 291 291 289
291 291 291 292 294 296 296 297 297 299 298 297 298 298 299 300 299 299 299 299 299 299 300 301 300 299 299 298 298 298 298 298 297 297 297 297 296 295 294 293 292 291 290
292 292 291 292 295 296 298 299 299 298 299 300 300 299 300 300 299 299 300 300 300 300 301 301 301 301 301 300 299 299 300 299 298 298 297 297 299 297 296 295 295 294 292
294 293 292 294 295 295 296 297 299 299 300 301 303 303 303 302 301 301 301 302 302 303 303 303 302 301 301 300 300 300 299 298 298 298 298 298 299 298 297 297 296 296 294
Height
5889 5888 5886 5884 5882 5880 5878 5876 5873 5872 5870 5869 5868 5867 5866 5865 5864 5863 5863 5862 5862 5861 5860 5859 5858 5857 5856 5854 5853 5852 5851 5850 5849 5847 5846 5846 5845 5844 5843 5842 5842 5841 5840
5887 5885 5883 5881 5879 5877 5875 5873 5870 5868 5866 5865 5864 5862 5861 5860 5860 5859 5858 5857 5857 5856 5855 5854 5853 5852 5851 5849 5848 5847 5845 5844 5843 5842 5841 5840 5840 5839 5838 5837 5836 5836 5835
5884 5882 5881 5879 5876 5874 5872 5869 5867 5864 5863 5861 5859 5858 5857 5856 5855 5854 5854 5853 5852 5851 5850 5849 5848 5846 5845 5843 5842 5841 5840 5838 5837 5836 5835 5835 5834 5833 5832 5831 5830 5829 5829
5881 5879 5877 5875 5873 5870 5868 5866 5863 5861 5859 5857 5855 5853 5852 5851 5850 5849 5848 5847 5846 5845 5844 5843 5842 5841 5839 5838 5836 5835 5834 5832 5831 5830 5829 5828 5827 5826 5825 5825 5824 5823 5822
5877 5875 5873 5871 5868 5866 5864 5862 5859 5857 5854 5852 5850 5848 5846 5845 5844 5843 5842 5841 5840 5839 5837 5836 5835 5834 5832 5831 5830 5828 5827 5826 5824 5823 5822 5821 5820 5819 5818 5818 5817 5816 5815
5872 5870 5868 5866 5864 5861 5859 5857 5854 5852 5850 5847 5845 5843 5841 5840 5839 5837 5836 5835 5834 5832 5831 5829 5828 5827 5825 5824 5823 5821 5820 5818 5817 5816 5815 5813 5813 5812 5811 5810 5809 5808 5808
5867 5865 5863 5861 5859 5857 5854 5852 5849 5847 5844 5842 5840 5838 5836 5834 5832 5831 5829 5828 5827 5825 5824 5822 5821 5819 5818 5817 5815 5814 5812 5811 5809 5808 5807 5806 5805 5804 5802 5801 5800 5799 5799
5861 5859 5857 5855 5853 5851 5848 5846 5843 5841 5839 5836 5834 5831 5829 5828 5826 5824 5823 5821 5820 5818 5817 5815 5813 5811 5810 5808 5807 5806 5804 5803 5801 5800 5799 5797 5796 5795 5794 5793 5792 5791 5790
5856 5854 5851 5849 5847 5844 5842 5839 5837 5835 5832 5830 5827 5825 5823 5821 5819 5817 5815 5813 5812 5810 5809 5807 5805 5804 5802 5800 5798 5797 5795 5794 5792 5791 5790 5789 5788 5786 5785 5783 5782 5781 5780
5849 5847 5845 5842 5840 5837 5835 5832 5830 5827 5825 5822 5820 5818 5815 5813 5811 5809 5807 5805 5804 5802 5801 5799 5797 5796 5794 5792 5790 5788 5787 5785 5784 5783 5781 5780 5778 5777 5775 5773 5772 5771 5770
5842 5840 5837 5835 5833 5830 5828 5825 5822 5819 5817 5815 5812 5810 5808 5806 5803 5801 5799 5797 5795 5794 5792 5791 5789 5788 5786 5784 5782 5780 5778 5776 5775 5774 5772 5770 5768 5767 5765 5763 5762 5760 5759
5835 5833 5830 5828 5825 5823 5820 5817 5814 5811 5809 5807 5804 5802 5800 5798 5795 5793 5791 5789 5787 5786 5784 5782 5781 5779 5777 5775 5773 5771 5769 5767 5766 5764 5762 5760 5758 5756 5755 5753 5751 5750 5748
5827 5825 5822 5820 5817 5815 5812 5809 5807 5804 5802 5799 5797 5794 5792 5789 5787 5785 5783 5781 5779 5777 5776 5774 5772 5770 5769 5767 5765 5762 5760 5758 5756 5754 5752 5750 5748 5746 5744 5742 5740 5739 5738
5819 5816 5814 5811 5809 5807 5804 5802 5799 5797 5794 5791 5788 5786 5783 5781 5779 5776 5774 5772 5770 5769 5767 5765 5763 5762 5760 5758 5756 5753 5751 5749 5747 5744 5742 5740 5737 5735 5733 5731 5730 5728 5727
5810 5808 5805 5803 5801 5798 5796 5793 5791 5788 5785 5783 5780 5777 5775 5772 5770 5768 5765 5763 5761 5759 5758 5756 5754 5752 5750 5747 5746 5744 5742 5739 5737 5735 5732 5729 5727 5725 5723 5720 5719 5717 5716
5802 5800 5797 5795 5792 5790 5787 5785 5782 5780 5777 5774 5771 5769 5766 5764 5761 5759 5757 5755 5752 5750 5748 5747 5744 5742 5740 5738 5735 5733 5731 5729 5726 5724 5721 5718 5716 5714 5711 5709 5707 5706 5704
5794 5792 5789 5787 5784 5781 5779 5776 5774 5771 5769 5766 5763 5760 5758 5755 5753 5751 5749 5746 5744 5742 5739 5737 5735 5733 5730 5728 5725 5723 5721 5718 5716 5713 5710 5707 5705 5702 5700 5698 5696 5694 5693
5785 5783 5781 5778 5776 5773 5770 5768 5765 5763 5761 5758 5755 5752 5750 5747 5745 5743 5741 5738 5736 5733 5730 5728 5725 5723 5720 5718 5715 5712 5710 5707 5705 5702 5699 5696 5694 5691 5689 5687 5684 5683 5681
5777 5775 5772 5769 5767 5764 5762 5759 5757 5754 5752 5750 5747 5744 5742 5740 5737 5735 5732 5730 5727 5724 5721 5718 5715 5713 5710 5707 5704 5701 5699 5696 5693 5690 5687 5685 5682 5679 5677 5675 5673 5670 5668
5768 5766 5763 5761 5758 5756 5753 5750 5748 5746 5744 5741 5739 5736 5734 5732 5729 5727 5724 5720 5718 5715 5712 5709 5706 5703 5700 5696 5693 5690 5687 5685 5682 5678 5675 5673 5670 5666 5664 5662 5660 5658 5656
5759 5757 5755 5752 5750 5747 5744 5742 5739 5737 5735 5733 5731 5728 5725 5723 5720 5718 5715 5712 5709 5706 5703 5700 5697 5693 5689 5686 5682 5679 5676 5673 5669 5666 5663 5661 5658 5655 5652 5650 5648 5646 5644
5750 5748 5746 5744 5741 5739 5736 5733 5731 5729 5727 5725 5722 5720 5717 5714 5711 5709 5706 5703 5700 5696 5693 5690 5687 5683 5679 5676 5672 5669 5665 5662 5658 5655 5652 5649 5646 5643 5641 5639 5637 5635 5633
5742 5740 5738 5736 5733 5731 5728 5726 5723 5721 5718 5716 5713 5711 5708 5705 5702 5699 5696 5693 5690 5687 5683 5680 5676 5673 5669 5665 5661 5658 5655 5651 5648 5644 5642 5639 5636 5633 5630 5628 5625 5623 5621
5734 5732 5730 5727 5725 5723 5720 5718 5715 5712 5710 5707 5704 5701 5698 5696 5693 5690 5687 5683 5680 5677 5673 5670 5666 5662 5659 5655 5651 5647 5644 5640 5637 5634 5631 5628 5625 5622 5619 5617 5614 5612 5610
5726 5723 5721 5719 5716 5714 5712 5709 5707 5704 5701 5698 5695 5692 5689 5686 5683 5680 5677 5674 5670 5667 5663 5659 5655 5652 5648 5645 5641 5637 5634 5630 5627 5624 5621 5618 5614 5610 5608 5606 5604 5602 5600
5718 5715 5713 5711 5708 5706 5704 5701 5698 5696 5693 5690 5687 5683 5680 5677 5673 5670 5667 5664 5660 5656 5653 5649 5645 5642 5638 5635 5631 5627 5624 5620 5617 5614 5611 5608 5604 5601 5598 5596 5594 5592 5589